Flag for Germany Weather past 2 weeks in Niederkassel, North Rhine-Westphalia, Germany

Now
51 °F

Fog.


Feels Like: 51 °F
Forecast: 51 / 78 °F
Wind: 2 mph from West

Location: Bonn-Hangelar

Current Time: Jul 31, 2015 at 2:00:49 AM

Latest Report: Jul 31, 2015 at 1:00 AM


Visibility: 4 mi

Pressure: 30.14 "Hg

Humidity: 98%

Dew point: 50 °F

Location of NiederkasselLocation

Historic Weather in Niederkassel — Graph

°F

Niederkassel temperature yesterday

Maximum temperature yesterday: 61 °F (at 12:00 PM)
Minimum temperature yesterday: 49 °F (at 5:00 AM)
Average temperature yesterday: 54 °F

Past Weeks' High & Low Weather Summary

 TemperatureHumidityPressure
High89 °F (Jul 17, 5:00 PM)100% (Jul 16, 2:00 AM)30.14 "Hg (Jul 16, 2:00 AM)
Low49 °F (Jul 30, 5:00 AM)31% (Jul 17, 5:00 PM)29.50 "Hg (Jul 25, 7:00 AM)
Average64 °F78%29.89 "Hg
* Reported Jul 16 1:00 AM — Jul 31 1:00 AM, Niederkassel, Weather by CustomWeather, © 2015

Note: Actual official high and low records may vary slightly from our data, if they occured in-between our weather recording intervals... More about our weather records

Advertising

Niederkassel weather history for previous 24 hours

 ConditionsComfort  
Time TempWeatherWind HumidityBarometerVisibility
1:00 AM
Fri, Jul 31
51 °FFog.2 mph98%30.14 "Hg4 mi
11:00 PM
Thu, Jul 30
52 °FOvercast.3 mph97%30.12 "Hg9 mi
10:00 PM52 °FOvercast.2 mph97%30.11 "Hg9 mi
9:00 PM52 °FDrizzle. Overcast.2 mph98%30.09 "Hg8 mi
8:00 PM51 °FLight rain. Low clouds.5 mph97%30.08 "Hg3 mi
7:00 PM56 °FDrizzle. Overcast.3 mph90%30.05 "Hg10 mi
6:00 PM58 °FOvercast.3 mph89%30.04 "Hg13 mi
5:00 PM56 °FOvercast.3 mph93%30.04 "Hg9 mi
4:00 PM54 °FRain. Low clouds.3 mph97%30.04 "Hg3 mi
3:00 PM56 °FLight rain. Low clouds.5 mph88%30.02 "Hg4 mi
2:00 PM58 °FOvercast.3 mph83%30.01 "Hg16 mi
1:00 PM55 °FLow clouds.5 mph88%30.01 "Hg19 mi
12:00 PM61 °FHaze.5 mph71%29.99 "Hg15 mi
11:00 AM57 °FOvercast.5 mph81%30.00 "Hg11 mi
10:00 AM56 °FOvercast.6 mph87%30.00 "Hg11 mi
9:00 AM55 °FOvercast.6 mph88%29.98 "Hg11 mi
8:00 AM52 °FOvercast.6 mph92%29.98 "Hg11 mi
7:00 AM51 °FLow clouds.5 mph93%29.97 "Hg12 mi
5:00 AM49 °FPassing clouds.5 mph92%29.96 "Hg16 mi
4:00 AM50 °FClear.5 mph89%29.96 "Hg18 mi
3:00 AM53 °FOvercast.3 mph83%29.96 "Hg19 mi
2:00 AM50 °FClear.3 mph83%29.96 "Hg22 mi
Weather by CustomWeather, © 2015

See weather overviewHow to use our weather pages